Location: Newark
(45.5167°N, 11.1667°E)
Time: 16:26:07
(UTC+00:00)

Explorer 7 - Pass Details

Date: 21 December 2019
Orbit: 485 x 679 km, 50.3° (Epoch: 28 January)

Event Time Altitude Azimuth Distance (km) Brightness Sun altitude
Rises 17:24:57 0° 293° (WNW) 3,027 11.4 -18.4°
Reaches altitude 10° 17:27:29 10° 284° (WNW) 2,117 10.7 -18.9°
Maximum altitude 17:31:52 33° 221° (SW) 1,126 8.8 -19.6°
Drops below altitude 10° 17:36:13 10° 157° (SSE) 2,089 9.7 -20.3°
Enters shadow 17:37:46 - 151° (SSE) 2,637 10.1 -20.6°
Sets 17:38:43 0° 148° (SSE) 2,982 - -20.8°
